Location: Ernsee
(50.8780°N, 12.0389°E)
Time: 05:15:48
(UTC+00:00)

Cosmos 44 Rocket - Pass Details

Date: 20 January 2020
Orbit: 660 x 730 km, 65.1° (Epoch: 26 February)

Event Time Altitude Azimuth Distance (km) Brightness Sun altitude
Exits shadow 05:08:01 27° 244° (WSW) 1,262 4.2 -17.8°
Drops below altitude 10° 05:12:00 10° 186° (S) 2,094 5.8 -17.2°
Sets 05:14:35 0° 175° (S) 3,013 6.8 -16.8°
